User: anonymous   Login
Location: ?
(35.4214°N, 139.3011°E)
Time: 15:32:18
(UTC+00:00)
Language:

Cosmos-2242 - Orbit

View from above orbital plane
View from above orbital plane
View from above satellite
View from above satellite

Ground track
Ground track

The orbit data is extracted from the following two-line orbital elements,

1 22626U 93024A   20270.76033404  .00000177  00000-0  16462-4 0  9992
2 22626  82.5249 352.4531 0020468 103.9896 256.3600 14.88022973484225
Epoch (UTC): 26 September 2020 18:14:52
Eccentricity: 0.0020468
inclination: 82.5249°
perigee height: 590 km
apogee height: 618 km
right ascension of ascending node: 352.4531°
argument of perigee: 103.9896°
revolutions per day: 14.88022973
mean anomaly at epoch: 256.3600°
orbit number at epoch: 48422

The dashed part of the orbit path shows where the satellite is in the earth's shadow,  

DLR